sat.trackr.live / text

‹ back to catalog

STARLINK-3902

NORAD 52487 · 2022-049AN

PAYLOAD ACTIVE UNKNOWN

§ Identity

Operator
Country
US
Launch date
2022-05-06
Launch site
AFETR
Launch vehicle
Mass (kg)
RCS (m²)

Purposes: comms

External: N2YO · Heavens-Above · Gunter

§ Orbital elements

Epoch: 2026-05-25T03:53:32.712288Z

Period
95.44 min
Inclination
53.2133°
Eccentricity
0.0001434
Mean motion
15.08845452 rev/d
Perigee alt
538.7 km
Apogee alt
540.7 km
Semi-major
6,917.9 km
B*
8.3708e-5
RAAN
65.9268°
Arg perigee
103.7876°
Mean anomaly
256.3275°
Rev number
22,517

§ Raw data

STARLINK-39021 52487U 22049AN  26145.16218417  .00001045  00000+0  83708-4 0  99902 52487  53.2133  65.9268 0001434 103.7876 256.3275 15.08845452225174

JSON: /api/v1/satellites/52487 · /tle

For live sub-satellite position, see the globe view (requires WebGL).

§ Visibility from observer

Set your observer location to see the next 7 days of passes ≥ 10°. The values pass through the URL so the page stays shareable.

No JS? Fill the form by hand. The geolocation button needs JavaScript.